Location: Puketoi
(40.5833°S, 176.0167°E)
Time: 14:02:18
(UTC+00:00)

Cosmos 1953 - Pass Details

Date: 08 February 2023
Orbit: 527 x 549 km, 82.5° (Epoch: 22 March)

Event Time Altitude Azimuth Distance (km) Brightness Sun altitude
Rises 15:13:04 0° 188° (S) 2,765 6.4 -22.8°
Reaches altitude 10° 15:15:16 10° 187° (S) 1,858 5.5 -22.6°
Maximum altitude 15:19:22 89° 94° (E) 561 2.2 -22.0°
Enters shadow 15:19:48 71° 9° (N) 591 2.2 -22.0°
